Location: Unspecified
(0.0000°N, 0.0000°E)
Time: 06:33:03
(UTC+00:00)

Vanguard 3 - Pass Details

Date: 16 December 2017
Orbit: 508 x 3264 km, 33.3° (Epoch: 19 July)

Event Time Altitude Azimuth Distance (km) Brightness Sun altitude
Rises 06:24:21 0° 229° (SW) 7,067 11.7 6.6°
Reaches altitude 10° 06:29:35 10° 226° (SW) 5,820 11.3 7.8°
Maximum altitude 06:46:10 65° 148° (SSE) 2,232 9.9 11.6°
Drops below altitude 10° 06:55:36 10° 68° (ENE) 3,503 11.2 13.7°
Sets 06:57:57 0° 64° (ENE) 4,193 11.4 14.3°
